TimeCST,TemperatureF,Dew PointF,Humidity,Sea Level PressureIn,VisibilityMPH,Wind Direction,Wind SpeedMPH,Gust SpeedMPH,PrecipitationIn,Events,Conditions,WindDirDegrees,DateUTC
12:15 AM,32.0,30.2,93,30.06,10.0,WNW,4.6,-,N/A,,Overcast,300,2013-02-13 06:15:00
12:35 AM,32.0,30.2,93,30.07,7.0,West,3.5,-,N/A,,Overcast,280,2013-02-13 06:35:00
1:15 AM,28.4,26.6,93,30.06,1.8,WNW,5.8,-,N/A,,Mist,300,2013-02-13 07:15:00
1:35 AM,28.4,26.6,93,30.07,2.5,WNW,6.9,-,N/A,,Clear,290,2013-02-13 07:35:00
1:55 AM,26.6,23.0,86,30.07,4.0,WNW,4.6,-,N/A,,Clear,290,2013-02-13 07:55:00
2:15 AM,28.4,26.6,93,30.06,4.0,WNW,6.9,-,N/A,,Clear,290,2013-02-13 08:15:00
2:35 AM,26.6,24.8,93,30.06,4.0,West,4.6,-,N/A,,Clear,280,2013-02-13 08:35:00
2:55 AM,26.6,24.8,93,30.06,5.0,WNW,6.9,-,N/A,,Clear,300,2013-02-13 08:55:00
3:15 AM,26.6,24.8,93,30.05,7.0,WNW,6.9,-,N/A,,Clear,300,2013-02-13 09:15:00
3:35 AM,26.6,23.0,86,30.04,5.0,West,5.8,-,N/A,,Clear,280,2013-02-13 09:35:00
3:55 AM,26.6,23.0,86,30.04,5.0,WNW,5.8,-,N/A,,Clear,290,2013-02-13 09:55:00
4:15 AM,24.8,23.0,93,30.03,5.0,West,3.5,-,N/A,,Clear,270,2013-02-13 10:15:00
4:35 AM,26.6,24.8,93,30.03,7.0,West,3.5,-,N/A,,Clear,280,2013-02-13 10:35:00
4:55 AM,24.8,23.0,93,30.03,5.0,Calm,Calm,-,N/A,,Clear,0,2013-02-13 10:55:00
5:15 AM,24.8,23.0,93,30.03,3.0,Calm,Calm,-,N/A,,Clear,0,2013-02-13 11:15:00
5:35 AM,24.8,23.0,93,30.03,3.0,Calm,Calm,-,N/A,,Clear,0,2013-02-13 11:35:00
5:55 AM,23.0,21.2,93,30.03,0.2,Calm,Calm,-,N/A,Fog,Light Freezing Fog,0,2013-02-13 11:55:00
6:15 AM,24.8,23.0,93,30.03,1.0,Calm,Calm,-,N/A,,Mist,0,2013-02-13 12:15:00
6:35 AM,21.2,19.4,93,30.04,0.2,Calm,Calm,-,N/A,Fog,Light Freezing Fog,0,2013-02-13 12:35:00
6:55 AM,21.2,19.4,93,30.04,0.2,Calm,Calm,-,N/A,Fog,Light Freezing Fog,0,2013-02-13 12:55:00
7:15 AM,21.2,19.4,93,30.04,0.2,Calm,Calm,-,N/A,Fog,Light Freezing Fog,0,2013-02-13 13:15:00
7:35 AM,19.4,17.6,93,30.04,0.2,NW,3.5,-,N/A,Fog,Light Freezing Fog,310,2013-02-13 13:35:00
7:55 AM,-9999,-9999,N/A,30.05,1.2,NNW,3.5,-,N/A,,Mist,330,2013-02-13 13:55:00
8:35 AM,-9999,-9999,N/A,30.06,2.5,Calm,Calm,-,N/A,,Clear,0,2013-02-13 14:35:00
8:55 AM,-9999,-9999,N/A,30.06,7.0,West,3.5,-,N/A,,Clear,270,2013-02-13 14:55:00
9:15 AM,-9999,-9999,N/A,30.07,7.0,West,4.6,-,N/A,,Clear,280,2013-02-13 15:15:00
9:35 AM,-9999,-9999,N/A,30.07,7.0,West,4.6,-,N/A,,Clear,280,2013-02-13 15:35:00
9:55 AM,-9999,-9999,N/A,30.07,10.0,West,4.6,-,N/A,,Clear,280,2013-02-13 15:55:00
10:15 AM,26.6,24.8,93,30.07,10.0,West,4.6,-,N/A,,Clear,260,2013-02-13 16:15:00
10:35 AM,28.4,26.6,93,30.07,10.0,West,5.8,-,N/A,,Clear,280,2013-02-13 16:35:00
10:55 AM,30.2,24.8,80,30.08,10.0,West,6.9,-,N/A,,Clear,280,2013-02-13 16:55:00
11:15 AM,32.0,24.8,75,30.07,10.0,West,5.8,-,N/A,,Clear,280,2013-02-13 17:15:00
11:35 AM,32.0,24.8,75,30.07,10.0,WNW,6.9,-,N/A,,Clear,290,2013-02-13 17:35:00
11:55 AM,32.0,24.8,75,30.07,10.0,West,6.9,-,N/A,,Clear,280,2013-02-13 17:55:00
12:15 PM,33.8,26.6,75,30.07,10.0,SW,4.6,-,N/A,,Clear,220,2013-02-13 18:15:00
12:35 PM,33.8,26.6,75,30.06,10.0,WSW,3.5,-,N/A,,Clear,250,2013-02-13 18:35:00
12:55 PM,35.6,26.6,70,30.05,10.0,West,4.6,-,N/A,,Clear,260,2013-02-13 18:55:00
1:15 PM,35.6,26.6,70,30.05,10.0,West,6.9,-,N/A,,Clear,280,2013-02-13 19:15:00
1:35 PM,37.4,26.6,65,30.04,10.0,WNW,4.6,-,N/A,,Clear,290,2013-02-13 19:35:00
1:55 PM,37.4,26.6,65,30.03,10.0,West,5.8,-,N/A,,Clear,260,2013-02-13 19:55:00
2:15 PM,37.4,26.6,65,30.02,10.0,WSW,4.6,-,N/A,,Clear,250,2013-02-13 20:15:00
2:35 PM,39.2,28.4,65,30.01,10.0,SW,3.5,-,N/A,,Clear,230,2013-02-13 20:35:00
2:55 PM,41.0,28.4,61,30.00,10.0,SW,4.6,-,N/A,,Clear,230,2013-02-13 20:55:00
3:15 PM,41.0,28.4,61,30.00,10.0,SSW,5.8,-,N/A,,Clear,200,2013-02-13 21:15:00
3:35 PM,42.8,28.4,57,30.00,10.0,SSW,5.8,-,N/A,,Clear,200,2013-02-13 21:35:00
3:55 PM,42.8,28.4,57,30.00,10.0,SSW,6.9,-,N/A,,Clear,200,2013-02-13 21:55:00
4:15 PM,42.8,30.2,61,30.00,10.0,WSW,6.9,-,N/A,,Clear,240,2013-02-13 22:15:00
4:35 PM,41.0,28.4,61,29.99,10.0,SW,6.9,-,N/A,,Clear,220,2013-02-13 22:35:00
4:55 PM,42.8,26.6,53,29.99,10.0,SW,4.6,-,N/A,,Clear,220,2013-02-13 22:55:00
5:15 PM,42.8,26.6,53,29.98,10.0,SW,5.8,-,N/A,,Clear,230,2013-02-13 23:15:00
5:35 PM,42.8,26.6,53,29.98,10.0,WSW,5.8,-,N/A,,Clear,240,2013-02-13 23:35:00
5:55 PM,42.8,26.6,53,29.98,10.0,WSW,4.6,-,N/A,,Clear,240,2013-02-13 23:55:00
6:15 PM,41.0,26.6,57,29.97,10.0,WSW,4.6,-,N/A,,Clear,240,2013-02-14 00:15:00
6:35 PM,37.4,28.4,70,29.97,10.0,WSW,3.5,-,N/A,,Clear,240,2013-02-14 00:35:00
6:55 PM,37.4,28.4,70,29.97,10.0,SSW,5.8,-,N/A,,Clear,210,2013-02-14 00:55:00
7:15 PM,35.6,28.4,75,29.97,10.0,SSW,5.8,-,N/A,,Clear,210,2013-02-14 01:15:00
7:35 PM,35.6,28.4,75,29.97,10.0,SSW,5.8,-,N/A,,Clear,210,2013-02-14 01:35:00
7:55 PM,35.6,28.4,75,29.98,10.0,South,4.6,-,N/A,,Clear,190,2013-02-14 01:55:00
8:15 PM,35.6,28.4,75,29.98,10.0,South,5.8,-,N/A,,Clear,190,2013-02-14 02:15:00
8:35 PM,33.8,28.4,81,29.98,10.0,Calm,Calm,-,N/A,,Clear,0,2013-02-14 02:35:00
8:55 PM,35.6,28.4,75,29.98,10.0,Calm,Calm,-,N/A,,Clear,0,2013-02-14 02:55:00
9:15 PM,35.6,28.4,75,29.99,10.0,SSW,3.5,-,N/A,,Clear,200,2013-02-14 03:15:00
9:35 PM,33.8,28.4,81,29.99,10.0,Calm,Calm,-,N/A,,Clear,0,2013-02-14 03:35:00
10:15 PM,30.2,26.6,86,30.00,10.0,NNW,3.5,-,N/A,,Clear,340,2013-02-14 04:15:00
10:35 PM,32.0,26.6,80,30.00,10.0,Calm,Calm,-,N/A,,Clear,0,2013-02-14 04:35:00
10:55 PM,32.0,26.6,80,30.00,10.0,WSW,3.5,-,N/A,,Clear,240,2013-02-14 04:55:00
11:15 PM,32.0,26.6,80,30.01,10.0,WNW,4.6,-,N/A,,Clear,290,2013-02-14 05:15:00
11:35 PM,32.0,28.4,87,30.01,10.0,West,4.6,-,N/A,,Clear,270,2013-02-14 05:35:00
11:55 PM,32.0,26.6,80,30.01,10.0,Calm,Calm,-,N/A,,Clear,0,2013-02-14 05:55:00